| time (UTC) | temp F | wind direction | speed knots | gust knots | rain 1hr in | rain 24hr in | rain mn in | humidity % | barometer mb |
| 20260902014532 | 61 | 243 | 3.5 | 6.1 | 0.00 | 0.00 | 0.00 | 79 | 1019.5 |
| 20260902013530 | 61 | 282 | 2.6 | 6.1 | 0.00 | 0.00 | 0.00 | 79 | 1019.6 |
| 20260902012528 | 61 | 262 | 2.6 | 5.2 | 0.00 | 0.00 | 0.00 | 79 | 1019.7 |
| 20260902011606 | 61 | 280 | 1.7 | 4.3 | 0.00 | 0.00 | 0.00 | 80 | 1019.8 |
| 20260902010544 | 61 | 260 | 2.6 | 4.3 | 0.00 | 0.00 | 0.00 | 79 | 1020.0 |
| 20260902005542 | 61 | 205 | 1.7 | 5.2 | 0.00 | 0.00 | 0.00 | 79 | 1020.0 |
| 20260902004521 | 62 | 267 | 4.3 | 7.0 | 0.00 | 0.00 | 0.00 | 79 | 1020.2 |
| 20260902003519 | 62 | 264 | 6.1 | 9.6 | 0.00 | 0.00 | 0.00 | 78 | 1020.1 |
| 20260902002517 | 62 | 268 | 4.3 | 7.8 | 0.00 | 0.00 | 0.00 | 78 | 1020.1 |
| 20260902001535 | 62 | 264 | 5.2 | 8.7 | 0.00 | 0.00 | 0.00 | 78 | 1020.2 |
| 20260902000534 | 61 | 269 | 5.2 | 8.7 | 0.00 | 0.00 | 0.00 | 78 | 1020.2 |
| 20260901235552 | 62 | 265 | 4.3 | 7.8 | 0.00 | 0.00 | 0.00 | 77 | 1020.1 |
| 20260901234530 | 62 | 266 | 4.3 | 7.0 | 0.00 | 0.00 | 0.00 | 77 | 1020.0 |
| 20260901233528 | 62 | 272 | 4.3 | 8.7 | 0.00 | 0.00 | 0.00 | 78 | 1020.1 |
| 20260901232526 | 62 | 270 | 4.3 | 7.0 | 0.00 | 0.00 | 0.00 | 79 | 1020.1 |
| 20260901231524 | 62 | 267 | 4.3 | 7.8 | 0.00 | 0.00 | 0.00 | 78 | 1020.2 |
| 20260901230522 | 62 | 268 | 4.3 | 7.0 | 0.00 | 0.00 | 0.00 | 78 | 1020.3 |
| 20260901225521 | 62 | 267 | 3.5 | 6.1 | 0.00 | 0.00 | 0.00 | 77 | 1020.3 |
| 20260901224539 | 62 | 207 | 1.7 | 4.3 | 0.00 | 0.00 | 0.00 | 76 | 1020.3 |
| 20260901223517 | 62 | 269 | 2.6 | 5.2 | 0.00 | 0.00 | 0.00 | 76 | 1020.4 |
| 20260901222535 | 62 | 267 | 4.3 | 9.6 | 0.00 | 0.00 | 0.00 | 76 | 1020.4 |
| 20260901221553 | 62 | 263 | 4.3 | 7.8 | 0.00 | 0.00 | 0.00 | 75 | 1020.4 |
| 20260901220532 | 62 | 256 | 5.2 | 7.8 | 0.00 | 0.00 | 0.00 | 75 | 1020.3 |
| 20260901215550 | 62 | 256 | 3.5 | 6.1 | 0.00 | 0.00 | 0.00 | 74 | 1020.3 |
| 20260901214528 | 62 | 265 | 2.6 | 5.2 | 0.00 | 0.00 | 0.00 | 73 | 1020.3 |
| 20260901213526 | 62 | 243 | 1.7 | 3.5 | 0.00 | 0.00 | 0.00 | 73 | 1020.5 |
| 20260901212524 | 62 | 199 | 1.7 | 3.5 | 0.00 | 0.00 | 0.00 | 72 | 1020.5 |
| 20260901211522 | 62 | 268 | 1.7 | 4.3 | 0.00 | 0.00 | 0.00 | 71 | 1020.6 |
| 20260901210541 | 62 | 274 | 1.7 | 5.2 | 0.00 | 0.00 | 0.00 | 71 | 1020.6 |
| 20260901205519 | 62 | 262 | 0.9 | 2.6 | 0.00 | 0.00 | 0.00 | 70 | 1020.5 |
| 20260901204517 | 62 | 264 | 2.6 | 4.3 | 0.00 | 0.00 | 0.00 | 70 | 1020.5 |
| 20260901203535 | 63 | 279 | 1.7 | 3.5 | 0.00 | 0.00 | 0.00 | 70 | 1020.4 |
| 20260901202553 | 63 | 270 | 2.6 | 4.3 | 0.00 | 0.00 | 0.00 | 70 | 1020.4 |
| 20260901201531 | 62 | 233 | 1.7 | 4.3 | 0.00 | 0.00 | 0.00 | 74 | 1020.3 |
| 20260901200530 | 63 | 127 | 0.9 | 1.7 | 0.00 | 0.00 | 0.00 | 73 | 1020.3 |
| 20260901195528 | 63 | 287 | 0.9 | 2.6 | 0.00 | 0.00 | 0.00 | 72 | 1020.4 |
| 20260901194526 | 63 | 279 | 0.9 | 2.6 | 0.00 | 0.00 | 0.00 | 72 | 1020.2 |
| 20260901193524 | 64 | 137 | 0.9 | 1.7 | 0.00 | 0.00 | 0.00 | 72 | 1020.2 |
| 20260901192522 | 64 | 158 | 0.9 | 2.6 | 0.00 | 0.00 | 0.00 | 71 | 1020.3 |
| 20260901191601 | 64 | 131 | 0.9 | 2.6 | 0.00 | 0.00 | 0.00 | 70 | 1020.3 |
| 20260901190519 | 64 | 260 | 0.9 | 1.7 | 0.00 | 0.00 | 0.00 | 69 | 1020.2 |
| 20260901185517 | 65 | 284 | 1.7 | 2.6 | 0.00 | 0.00 | 0.00 | 69 | 1020.1 |
| 20260901184535 | 65 | 292 | 2.6 | 5.2 | 0.00 | 0.00 | 0.00 | 69 | 1020.2 |
| 20260901183533 | 65 | 292 | 1.7 | 2.6 | 0.00 | 0.00 | 0.00 | 69 | 1020.2 |
| 20260901182531 | 65 | 317 | 0.9 | 2.6 | 0.00 | 0.00 | 0.00 | 69 | 1020.1 |
| 20260901181530 | 65 | 304 | 1.7 | 4.3 | 0.00 | 0.00 | 0.00 | 69 | 1020.1 |
| 20260901180528 | 65 | 307 | 2.6 | 5.2 | 0.00 | 0.00 | 0.00 | 69 | 1020.2 |
| 20260901175526 | 65 | 299 | 1.7 | 3.5 | 0.00 | 0.00 | 0.00 | 68 | 1020.1 |
| 20260901174524 | 66 | 306 | 1.7 | 5.2 | 0.00 | 0.00 | 0.00 | 68 | 1020.0 |
| 20260901173522 | 67 | 301 | 2.6 | 6.1 | 0.00 | 0.00 | 0.00 | 65 | 1020.0 |
| 20260901172520 | 68 | 267 | 7.0 | 13.9 | 0.00 | 0.00 | 0.00 | 58 | 1019.9 |
| 20260901171519 | 68 | 267 | 3.5 | 5.2 | 0.00 | 0.00 | 0.00 | 58 | 1019.9 |
| 20260901170517 | 68 | 266 | 4.3 | 7.8 | 0.00 | 0.00 | 0.00 | 58 | 1019.8 |
| 20260901165535 | 68 | 277 | 5.2 | 11.3 | 0.00 | 0.00 | 0.00 | 57 | 1019.9 |
| 20260901164533 | 68 | 263 | 7.0 | 11.3 | 0.00 | 0.00 | 0.00 | 57 | 1020.0 |
| 20260901163531 | 68 | 258 | 7.0 | 10.4 | 0.00 | 0.00 | 0.00 | 55 | 1019.9 |
| 20260901162550 | 68 | 268 | 5.2 | 9.6 | 0.00 | 0.00 | 0.00 | 55 | 1019.9 |
| 20260901161548 | 68 | 273 | 5.2 | 8.7 | 0.00 | 0.00 | 0.00 | 54 | 1020.1 |
| 20260901160526 | 68 | 273 | 5.2 | 10.4 | 0.00 | 0.00 | 0.00 | 54 | 1020.0 |
| 20260901155527 | 68 | 278 | 6.1 | 12.2 | 0.00 | 0.00 | 0.00 | 53 | 1020.1 |
| 20260901154522 | 69 | 277 | 7.0 | 13.0 | 0.00 | 0.00 | 0.00 | 52 | 1020.2 |
| 20260901153520 | 68 | 267 | 7.8 | 12.2 | 0.00 | 0.00 | 0.00 | 55 | 1020.1 |
| 20260901152519 | 67 | 271 | 7.8 | 13.9 | 0.00 | 0.00 | 0.00 | 56 | 1020.0 |
| 20260901151517 | 67 | 260 | 7.0 | 14.8 | 0.00 | 0.00 | 0.00 | 56 | 1020.2 |
| 20260901150535 | 67 | 273 | 8.7 | 14.8 | 0.00 | 0.00 | 0.00 | 56 | 1020.3 |
| 20260901145533 | 67 | 263 | 7.0 | 14.8 | 0.00 | 0.00 | 0.00 | 58 | 1020.0 |
| 20260901144531 | 67 | 267 | 8.7 | 13.0 | 0.00 | 0.00 | 0.00 | 59 | 1020.3 |
| 20260901143529 | 67 | 265 | 8.7 | 16.5 | 0.00 | 0.00 | 0.00 | 61 | 1020.4 |
| 20260901142528 | 68 | 265 | 9.6 | 16.5 | 0.00 | 0.00 | 0.00 | 57 | 1020.4 |
| 20260901141526 | 68 | 267 | 7.8 | 12.2 | 0.00 | 0.00 | 0.00 | 55 | 1020.4 |
| 20260901140545 | 69 | 268 | 7.0 | 13.9 | 0.00 | 0.00 | 0.00 | 53 | 1020.2 |
| 20260901135522 | 68 | 273 | 6.1 | 13.0 | 0.00 | 0.00 | 0.00 | 53 | 1020.3 |
| 20260901134520 | 69 | 256 | 7.0 | 13.9 | 0.00 | 0.00 | 0.00 | 53 | 1020.4 |
| 20260901133519 | 69 | 252 | 7.8 | 14.8 | 0.00 | 0.00 | 0.00 | 52 | 1020.2 |
| 20260901132517 | 69 | 263 | 8.7 | 15.6 | 0.00 | 0.00 | 0.00 | 54 | 1020.4 |
| 20260901131535 | 69 | 268 | 7.8 | 15.6 | 0.00 | 0.00 | 0.00 | 54 | 1020.4 |
| 20260901130533 | 69 | 264 | 7.8 | 15.6 | 0.00 | 0.00 | 0.00 | 54 | 1020.4 |
| 20260901125531 | 69 | 267 | 8.7 | 15.6 | 0.00 | 0.00 | 0.00 | 54 | 1020.3 |
| 20260901124529 | 68 | 270 | 7.8 | 15.6 | 0.00 | 0.00 | 0.00 | 54 | 1020.3 |
| 20260901123528 | 68 | 272 | 7.8 | 14.8 | 0.00 | 0.00 | 0.00 | 54 | 1020.3 |
| 20260901122526 | 68 | 270 | 7.0 | 13.9 | 0.00 | 0.00 | 0.00 | 53 | 1020.4 |
| 20260901121524 | 68 | 273 | 8.7 | 16.5 | 0.00 | 0.00 | 0.00 | 54 | 1020.4 |
| 20260901120542 | 68 | 268 | 8.7 | 14.8 | 0.00 | 0.00 | 0.00 | 53 | 1020.5 |
| 20260901115521 | 68 | 268 | 7.8 | 13.0 | 0.00 | 0.00 | 0.00 | 54 | 1020.4 |
| 20260901114519 | 67 | 261 | 8.7 | 14.8 | 0.00 | 0.00 | 0.00 | 55 | 1020.4 |
| 20260901113517 | 67 | 268 | 9.6 | 15.6 | 0.00 | 0.00 | 0.00 | 56 | 1020.3 |
| 20260901112535 | 66 | 276 | 9.6 | 15.6 | 0.00 | 0.00 | 0.00 | 55 | 1020.4 |
| 20260901111533 | 67 | 271 | 7.8 | 14.8 | 0.00 | 0.00 | 0.00 | 55 | 1020.6 |
| 20260901110531 | 66 | 269 | 7.8 | 13.0 | 0.00 | 0.00 | 0.00 | 57 | 1020.6 |
| 20260901105529 | 66 | 263 | 7.0 | 11.3 | 0.00 | 0.00 | 0.00 | 58 | 1020.6 |
| 20260901104528 | 65 | 254 | 8.7 | 15.6 | 0.00 | 0.00 | 0.00 | 60 | 1020.7 |
| 20260901103526 | 65 | 260 | 8.7 | 13.0 | 0.00 | 0.00 | 0.00 | 61 | 1020.8 |
| 20260901102524 | 65 | 266 | 8.7 | 13.9 | 0.00 | 0.00 | 0.00 | 63 | 1021.0 |
| 20260901101522 | 64 | 264 | 5.2 | 13.0 | 0.00 | 0.00 | 0.00 | 63 | 1021.0 |
| 20260901100520 | 64 | 277 | 7.0 | 13.0 | 0.00 | 0.00 | 0.00 | 62 | 1021.1 |
| 20260901095518 | 63 | 262 | 7.0 | 10.4 | 0.00 | 0.00 | 0.00 | 63 | 1021.0 |
| 20260901094537 | 63 | 270 | 5.2 | 9.6 | 0.00 | 0.00 | 0.00 | 65 | 1021.1 |
| 20260901093535 | 63 | 264 | 6.1 | 10.4 | 0.00 | 0.00 | 0.00 | 66 | 1021.2 |
| 20260901092533 | 62 | 241 | 4.3 | 10.4 | 0.00 | 0.00 | 0.00 | 70 | 1021.3 |
| 20260901091531 | 63 | 269 | 6.1 | 9.6 | 0.00 | 0.00 | 0.00 | 70 | 1021.2 |
| 20260901090530 | 62 | 258 | 6.1 | 11.3 | 0.00 | 0.00 | 0.00 | 72 | 1021.2 |
| 20260901085528 | 62 | 264 | 6.1 | 13.0 | 0.00 | 0.00 | 0.00 | 73 | 1021.2 |
| 20260901084626 | 61 | 260 | 7.0 | 11.3 | 0.00 | 0.00 | 0.00 | 74 | 1021.2 |
| 20260901083524 | 61 | 255 | 5.2 | 8.7 | 0.00 | 0.00 | 0.00 | 75 | 1021.3 |
| 20260901082522 | 61 | 271 | 5.2 | 8.7 | 0.00 | 0.00 | 0.00 | 78 | 1021.2 |
| 20260901081520 | 60 | 256 | 5.2 | 7.8 | 0.00 | 0.00 | 0.00 | 77 | 1021.2 |
| 20260901080519 | 61 | 262 | 4.3 | 7.8 | 0.00 | 0.00 | 0.00 | 77 | 1021.0 |
| 20260901075557 | 60 | 248 | 3.5 | 7.0 | 0.00 | 0.00 | 0.00 | 77 | 1021.1 |
| 20260901074535 | 59 | 267 | 3.5 | 6.1 | 0.00 | 0.00 | 0.00 | 79 | 1021.1 |
| 20260901073533 | 59 | 260 | 7.0 | 12.2 | 0.00 | 0.00 | 0.00 | 78 | 1021.0 |
| 20260901072531 | 59 | 265 | 5.2 | 9.6 | 0.00 | 0.00 | 0.00 | 77 | 1021.1 |
| 20260901071529 | 58 | 259 | 3.5 | 6.1 | 0.00 | 0.00 | 0.00 | 77 | 1021.0 |
| 20260901070528 | 58 | 275 | 3.5 | 5.2 | 0.00 | 0.00 | 0.00 | 74 | 1020.8 |
| 20260901065526 | 58 | 281 | 1.7 | 5.2 | 0.00 | 0.00 | 0.00 | 74 | 1020.7 |
| 20260901064524 | 56 | 158 | 1.7 | 4.3 | 0.00 | 0.00 | 0.00 | 77 | 1020.8 |
| 20260901063542 | 55 | 150 | 1.7 | 3.5 | 0.00 | 0.00 | 0.00 | 78 | 1020.8 |
| 20260901062520 | 54 | 0.0 | 0.9 | 0.00 | 0.00 | 0.00 | 79 | 1020.6 | |
| 20260901061519 | 53 | 90 | 1.7 | 3.5 | 0.00 | 0.00 | 0.00 | 83 | 1020.7 |
| 20260901060517 | 52 | 147 | 0.9 | 3.5 | 0.00 | 0.00 | 0.00 | 86 | 1020.6 |
| 20260901055535 | 51 | 97 | 1.7 | 4.3 | 0.00 | 0.00 | 0.00 | 86 | 1020.5 |
| 20260901054533 | 51 | 305 | 0.0 | 1.7 | 0.00 | 0.00 | 0.00 | 88 | 1020.4 |
| 20260901053531 | 50 | 29 | 1.7 | 2.6 | 0.00 | 0.00 | 0.00 | 88 | 1020.3 |
| 20260901052529 | 50 | 39 | 1.7 | 4.3 | 0.00 | 0.00 | 0.00 | 88 | 1020.2 |
| 20260901051528 | 50 | 124 | 0.9 | 3.5 | 0.00 | 0.00 | 0.00 | 88 | 1020.2 |
| 20260901050546 | 50 | 4 | 1.7 | 5.2 | 0.00 | 0.00 | 0.00 | 88 | 1020.1 |
| 20260901045524 | 50 | 92 | 1.7 | 3.5 | 0.00 | 0.00 | 0.00 | 88 | 1020.1 |
| 20260901044522 | 50 | 72 | 1.7 | 4.3 | 0.00 | 0.00 | 0.00 | 88 | 1020.1 |
| 20260901043520 | 51 | 114 | 1.7 | 3.5 | 0.00 | 0.00 | 0.00 | 87 | 1020.1 |
| 20260901042518 | 51 | 142 | 1.7 | 3.5 | 0.00 | 0.00 | 0.00 | 87 | 1020.0 |
| 20260901041516 | 51 | 82 | 0.9 | 3.5 | 0.00 | 0.00 | 0.00 | 87 | 1020.1 |
| 20260901040535 | 52 | 58 | 0.9 | 2.6 | 0.00 | 0.00 | 0.00 | 86 | 1019.9 |
| 20260901035533 | 52 | 26 | 2.6 | 4.3 | 0.00 | 0.00 | 0.00 | 85 | 1020.0 |
| 20260901034531 | 52 | 134 | 0.9 | 2.6 | 0.00 | 0.00 | 0.00 | 86 | 1019.9 |
| 20260901033529 | 52 | 357 | 0.9 | 2.6 | 0.00 | 0.00 | 0.00 | 86 | 1019.9 |
| 20260901032547 | 52 | 94 | 0.0 | 2.6 | 0.00 | 0.00 | 0.00 | 84 | 1019.9 |
| 20260901031526 | 52 | 304 | 0.0 | 1.7 | 0.00 | 0.00 | 0.00 | 85 | 1020.0 |
| 20260901030524 | 52 | 0.0 | 0.0 | 0.00 | 0.00 | 0.00 | 87 | 1020.0 | |
| 20260901025522 | 51 | 0.0 | 0.9 | 0.00 | 0.00 | 0.00 | 87 | 1020.0 | |
| 20260901024540 | 52 | 0.0 | 0.9 | 0.00 | 0.00 | 0.00 | 87 | 1020.0 | |
| 20260901023518 | 52 | 0.0 | 0.9 | 0.00 | 0.00 | 0.00 | 86 | 1020.0 | |
| 20260901022517 | 52 | 65 | 0.0 | 0.9 | 0.00 | 0.00 | 0.00 | 85 | 1020.0 |
| 20260901021535 | 53 | 0.0 | 0.9 | 0.00 | 0.00 | 0.00 | 84 | 1020.0 | |
| 20260901020613 | 53 | 0.0 | 0.9 | 0.00 | 0.00 | 0.00 | 85 | 1020.0 | |
| 20260901015551 | 53 | 266 | 0.0 | 0.9 | 0.00 | 0.00 | 0.00 | 83 | 1020.1 |